Погода в Терском

Россия / Чеченская Республика     43°33′06″N   45°35′54″E
темп.,
°C
ветер,
м/с
пор.,
м/с
влажн.,
%
обл.,
%
осадки,
мм/ч
давл.,
гПа
погр.,
м
12 апреля, пн
пн1200:00+10зсз367141 0.0 1015120
03:00+10з3670100 0.0 1016180
06:00+10з2574100 0.0 1018162
09:00+14зсз5658100 0.0 1019871
12:00+17сз4452100 0.0 10191400
15:00+16сз4457100 0.0 10191057
18:00+13зсз4772100 0.0 1021316
21:00+12зсз4776100 0.0 1022350
13 апреля, вт
вт1300:00+11зсз3576100 0.0 1022286
03:00+10зсз357994 0.0 1022244
06:00+10зсз247999 0.0 1022239
09:00+13сз326996 0.0 1022650
12:00+15ссв326473 0.0 1021963
15:00+17с015743 0.0 10191049
18:00+16сз2263100 0.0 1019104
21:00+14сз3573100 0.1 1019244
14 апреля, ср
ср1400:00+11сз128269 0.0 101788
03:00+10зсз3587100 0.0 1015182
06:00+11зсз2688100 0.0 1015249
09:00+14з4574100 0.0 1016615
12:00+15з4467100 0.1 1016886
15:00+16сз2262100 0.6 1016738
18:00+14зсз2369100 0.4 101692
21:00+12з498195 0.9 1017305
15 апреля, чт
чт1500:00+11зюз2579100 0.0 1017196
03:00+11зюз1181100 0.0 101722
06:00+11з2480100 0.0 1016124
09:00+14сз2362100 0.0 1016553
12:00+18сз334543 0.0 10151336
15:00+20ссз34363 0.0 10131811
18:00+18ссв11472 0.0 1013140
21:00+15ю115373 0.0 101410
16 апреля, пт
пт1600:00+13ююз115695 0.0 101311
03:00+12ююз11605 0.0 101310
06:00+12з226360 0.0 101418
09:00+17сз445091 0.0 1015606
12:00+20сз4343100 0.0 10141662
15:00+21сз3338100 0.0 10142237
18:00+13сз5893100 4.0 1017436
21:00+11сз3592100 8.1 1018253